This demonstration page uses our WeatherBlox Daily Observations layout. Learn more.

Left ArrowRight Arrow

34.02893, -84.19858

Hourly Observations for November 12, 2019

Temp ( °F °C ) Dew Point ( °F °C ) Humidity (%) Winds ( mph kmh ) Pressure ( in mb ) Visibility ( mi km ) Precip ( " mm )
12:36 am 00:36 Cloudy with Light Rain 55 12.8 53 11.7 93 93 WSW 3 6 30.00 1016 6 10 0.01 0.25
12:47 am 00:47 Cloudy with Rain 55 13 54 12 94 94 WSW 5 7 30.00 1016 3 4 0.03 0.76
12:53 am 00:53 Cloudy with Rain 55 12.8 53 11.7 93 93 Calm 29.98 1015 2 3 0.04 1.02
1:00 am 01:00 Cloudy with Rain 54 12.2 54 12.2 100 100 Calm 29.99 1016 2 3 0.03 0.76
1:14 am 01:14 Cloudy with Light Rain 55 12.8 54 12.2 96 96 SSW 3 6 29.99 1016 4 6 0.04 1.02
1:53 am 01:53 Cloudy with Mist and Fog 54 12.2 54 12.2 100 100 SSE 5 7 29.94 1014 4 6 0.05 1.27
2:53 am 02:53 Cloudy with Light Rain 55 12.8 55 12.8 100 100 S 3 6 29.90 1013 8 13 0.00 0.00
3:09 am 03:09 Cloudy with Mist and Fog 55 12.8 54 12.2 96 96 Calm 29.91 1013 6 10 0.00 0.00
3:22 am 03:22 Cloudy with Mist and Fog 55 12.8 55 12.8 100 100 Calm 29.90 1013 6 10 0.00 0.00
3:53 am 03:53 Cloudy with Mist and Fog 55 12.8 55 12.8 100 100 Calm 29.85 1011 5 8 0.00 0.00
4:16 am 04:16 Cloudy 55 12.8 54 12.2 96 96 NNW 7 11 29.88 1012 8 13 0.00 0.00
4:28 am 04:28 Cloudy 55 12.8 54 12.2 96 96 WNW 10 17 29.90 1013 8 13 0.00 0.00
4:32 am 04:32 Cloudy with Light Rain 55 12.8 54 12.2 96 96 WNW 7 11 29.90 1013 7 11 0.00 0.00
4:39 am 04:39 Cloudy with Rain 55 12.8 54 12.2 96 96 W 9 15 29.91 1013 5 8 0.02 0.51
4:53 am 04:53 Cloudy with Rain 52 11.1 50 10 93 93 WNW 20 31 29.91 1013 3 5 0.06 1.52
4:59 am 04:59 Cloudy with Light Rain 49 9.4 47 8.3 93 93 WNW 24 39 29.94 1014 5 8 0.01 0.25
5:24 am 05:24 Cloudy with Light Rain 46 7.8 44 6.7 93 93 NNW 13 20 29.96 1015 10 16 0.02 0.51
5:44 am 05:44 Cloudy with Light Rain 45 7.2 43 6.1 93 93 NW 17 28 29.99 1016 10 16 0.03 0.76
5:53 am 05:53 Cloudy with Light Rain 43 6.1 41 5 93 93 NW 18 30 29.98 1015 7 11 0.05 1.27
6:01 am 06:01 Cloudy with Rain 43 6.1 41 5 93 93 NW 18 30 29.99 1015 5 8 0.01 0.25
6:08 am 06:08 Cloudy with Rain 43 6.1 40 4.4 89 89 NW 14 22 30.00 1016 6 10 0.03 0.76
6:49 am 06:49 Cloudy with Rain 41 5 39 4 93 93 NW 13 20 30.01 1016 7 11 0.09 2.29
6:53 am 06:53 Cloudy with Rain 41 5 39 3.9 93 93 NW 17 28 29.99 1016 7 11 0.10 2.54
7:53 am 07:53 Cloudy with Light Rain 38 3.3 36 2.2 93 93 NW 15 24 30.03 1017 10 16 0.04 1.02
8:53 am 08:53 Cloudy with Light Rain 37 2.8 35 1.7 93 93 WNW 17 28 30.06 1018 10 16 0.02 0.51
9:53 am 09:53 Cloudy 36 2.2 33 0.6 89 89 NW 16 26 30.09 1019 10 16 0.00 0.00
10:53 am 10:53 Cloudy 36 2.2 32 0 86 86 NNW 20 31 30.11 1020 10 16 0.00 0.00
11:53 am 11:53 Cloudy 38 3.3 31 -0.6 76 76 NW 14 22 30.11 1020 10 16 0.00 0.00
12:53 pm 12:53 Mostly Cloudy 38 3.3 30 -1.1 73 73 NNW 20 31 30.11 1020 10 16 0.00 0.00
1:53 pm 13:53 Mostly Cloudy 38 3.3 28 -2.2 68 68 NW 20 31 30.12 1020 10 16 0.00 0.00
2:34 pm 14:34 Partly Cloudy 38 3.3 27 -2.8 65 65 NW 22 35 30.15 1021 10 16 0.00 0.00
2:53 pm 14:53 Partly Cloudy 37 2.8 26 -3.3 65 65 NW 20 31 30.13 1020 10 16 0.00 0.00
3:53 pm 15:53 Mostly Sunny 36 2.2 25 -3.9 64 64 NW 18 30 30.14 1021 10 16 0.00 0.00
4:53 pm 16:53 Sunny 34 1.1 23 -5 64 64 NNW 21 33 30.17 1022 10 16 0.00 0.00
5:53 pm 17:53 Clear 31 -0.6 21 -6.1 67 67 NW 18 30 30.21 1023 10 16 0.00 0.00
6:53 pm 18:53 Clear 29 -1.7 19 -7.2 66 66 NNW 17 28 30.24 1024 10 16 0.00 0.00
7:53 pm 19:53 Clear 28 -2.2 19 -7.2 69 69 NNW 13 20 30.26 1025 10 16 0.00 0.00
8:53 pm 20:53 Clear 27 -2.8 19 -7.2 72 72 NNW 16 26 30.27 1025 10 16 0.00 0.00
9:53 pm 21:53 Clear 26 -3.3 18 -7.8 71 71 NNW 13 20 30.29 1026 10 16 0.00 0.00
10:53 pm 22:53 Clear 25 -3.9 18 -7.8 75 75 NNW 10 17 30.30 1026 10 16 0.00 0.00
11:53 pm 23:53 Clear 25 -3.9 17 -8.3 72 72 NNW 10 17 30.31 1026 10 16 0.00 0.00

Powered by AerisWeather